Location: Beneden-Haastrecht
(52.0012°N, 4.7557°E)
Time: 14:52:13
(UTC+00:00)

Timation 1 Rocket - Pass Details

Date: 24 October 2020
Orbit: 896 x 911 km, 70.0° (Epoch: 28 November)

Event Time Altitude Azimuth Distance (km) Brightness Sun altitude
Rises 18:58:53 0° 327° (NNW) 3,548 8.1 -23.9°
Reaches altitude 10° 19:01:24 10° 329° (NNW) 2,605 7.3 -24.3°
Maximum altitude 19:07:27 76° 56° (NE) 943 4.2 -25.2°
Enters shadow 19:08:22 63° 116° (ESE) 1,013 4.2 -25.3°
